FENGYUN 3H

Last updated on Sun Apr 12 2026 00:02:27 GMT+0000 (Coordinated Universal Time)

1 65815U 25219A 26101.38017816 .00000063 00000+0 50025-4 0 9992 2 65815 98.6725 43.4645 0000675 81.7424 278.3829 14.19941553 27903
UTC large
Height (km)
Speed (km/s)
/
Latitude / Longitude
Inclination (degrees)
Orbital Period (minutes)
Azimuth
Elevation
Range (km)
Doppler Factor

Next 0 passes for location: London (51.5072 / 0.1276)

Sorry there are no passes over London.
FENGYUN 3H